カタログに戻る

COSMOS 2251 DEB

運用中LEO
NORAD 36008·DEBRIS·🇷🇺 Russia

打ち上げ Jun 16, 1993 から Plesetsk Cosmodrome

Loading…

次のパス (今後24時間)

TLE

古いSource: Space-Track

元期: Sep 8, 2026, 08:44 UTC

1 36008U 93036AXA 26251.36453361  .00003287  00000-0  11607-2 0  9992
2 36008  74.0060 140.8807 0163105 222.2979 136.5499 14.27911991644693

AllMySatでCOSMOS 2251 DEBをリアルタイム追跡

Download on the App Store